Fox Island, WA

5:21 AM PST on February 14, 2016 (GMT -0800)
Tacoma Narrows

Weather History for KTIW - February, 2014

Change the Weather History Date:

Friday, February 7, 2014

  Actual Average Record
Temperature  
Mean Temperature 28 °F -  
Max Temperature 34 °F 46 °F 59 °F (2012)
Min Temperature 23 °F 36 °F 23 °F (2014)
Degree Days  
Heating Degree Days 36    
Moisture  
Dew Point 19 °F    
Average Humidity 67    
Maximum Humidity 81    
Minimum Humidity 54    
Precipitation  
Precipitation 0.00 in - - ()
Sea Level Pressure  
Sea Level Pressure 29.86 in    
Wind  
Wind Speed 6 mph (North)    
Max Wind Speed 18 mph    
Max Gust Speed 29 mph    
Visibility 10 miles    
Events      
Averages and records for this station are not official NWS values.
T = Trace of Precipitation, MM = Missing Value Source: NWS Daily Summary

Daily Weather History Graph

Daily Weather History Graph

Search for Another Location

Airport or City:

Trip Planner

Search our weather history database for the weather conditions in past years. The results will help you decide how hot, cold, wet, or windy it might be!

Date:

Astronomy

Feb. 07, 2014 Rise Set
Actual Time 7:27 AM PST 5:22 PM PST
Civil Twilight 6:55 AM PST 5:54 PM PST
Nautical Twilight 6:19 AM PST 6:30 PM PST
Astronomical Twilight 5:43 AM PST 7:06 PM PST
Moon 11:32 AM PST (2/7) 1:52 AM PST (2/7)
Length of Visible Light 10h 58m
Length of Day
9h 54m
First Quarter, 60% of the Moon is Illuminated
Feb 7
First Quarter
Feb 14
Full
Feb 22
Last Quarter
Mar 1
New
Mar 8
First Quarter

Hourly Weather History & Observations

Time (PST) Temp. Windchill Dew Point Humidity Pressure Visibility Wind Dir Wind Speed Gust Speed Precip Events Conditions
12:53 AM 24.1 °F - 16.0 °F 71% 29.84 in 10.0 mi Calm Calm - N/A   Unknown
1:53 AM 23.0 °F 18.4 °F 16.0 °F 74% 29.86 in 10.0 mi ENE 3.5 mph - N/A   Unknown
2:53 AM 24.1 °F 19.7 °F 19.0 °F 81% 29.87 in 10.0 mi South 3.5 mph - N/A   Unknown
3:53 AM 25.0 °F 20.7 °F 19.0 °F 78% 29.89 in 10.0 mi WSW 3.5 mph - N/A   Unknown
4:53 AM 24.1 °F 16.0 °F 19.0 °F 81% 29.91 in 10.0 mi SW 6.9 mph - N/A   Unknown
5:53 AM 24.1 °F 19.7 °F 19.0 °F 81% 29.91 in 10.0 mi SSW 3.5 mph - N/A   Unknown
6:53 AM 24.1 °F - 18.0 °F 77% 29.92 in 10.0 mi Calm Calm - N/A   Unknown
7:53 AM 24.1 °F 18.2 °F 19.0 °F 81% 29.94 in 10.0 mi SSW 4.6 mph - N/A   Overcast
8:53 AM 24.1 °F - 19.0 °F 81% 29.95 in 10.0 mi Calm Calm - N/A   Mostly Cloudy
9:53 AM 26.1 °F 21.9 °F 19.9 °F 78% 29.96 in 10.0 mi NNW 3.5 mph - N/A   Mostly Cloudy
10:53 AM 28.0 °F 21.7 °F 21.0 °F 75% 29.96 in 10.0 mi North 5.8 mph - N/A   Mostly Cloudy
11:53 AM 30.0 °F 22.4 °F 19.9 °F 66% 29.94 in 10.0 mi North 8.1 mph - N/A   Scattered Clouds
12:53 PM 32.0 °F 24.2 °F 17.1 °F 54% 29.90 in 10.0 mi NE 9.2 mph - N/A   Scattered Clouds
1:53 PM 33.1 °F 24.9 °F 18.0 °F 54% 29.87 in 10.0 mi NNE 10.4 mph - N/A   Scattered Clouds
2:53 PM 34.0 °F 26.6 °F 19.0 °F 54% 29.84 in 10.0 mi North 9.2 mph - N/A   Overcast
3:53 PM 34.0 °F 27.2 °F 21.0 °F 59% 29.82 in 10.0 mi North 8.1 mph - N/A   Mostly Cloudy
4:53 PM 33.1 °F 25.5 °F 18.0 °F 54% 29.80 in 10.0 mi North 9.2 mph - N/A   Mostly Cloudy
5:53 PM 32.0 °F 21.6 °F 19.0 °F 59% 29.78 in 10.0 mi North 15.0 mph 21.9 mph N/A   Mostly Cloudy
6:53 PM 33.1 °F 25.5 °F 21.0 °F 61% 29.77 in 10.0 mi North 9.2 mph - N/A   Mostly Cloudy
7:53 PM 33.1 °F 23.4 °F 21.9 °F 64% 29.77 in 10.0 mi North 13.8 mph - N/A   Overcast
8:53 PM 33.1 °F 22.6 °F 19.9 °F 59% 29.76 in 10.0 mi North 16.1 mph 21.9 mph N/A   Overcast
9:53 PM 33.1 °F 22.6 °F 18.0 °F 54% 29.79 in 10.0 mi North 16.1 mph 24.2 mph N/A   Unknown
10:53 PM 34.0 °F 24.2 °F 19.0 °F 54% 29.80 in 10.0 mi North 15.0 mph - N/A   Unknown
11:53 PM 33.1 °F 21.9 °F 19.0 °F 56% 29.81 in 10.0 mi North 18.4 mph 28.8 mph N/A   Unknown